Scilly, United Kingdom

2:56 AM GMT on November 24, 2017 (GMT +0000)
Saint Mary's

Weather History for EGHE - October, 2012

Change the Weather History Date:

Monday, October 8, 2012

  Actual Average Record
Temperature  
Mean Temperature 59 °F -  
Max Temperature 63 °F 55 °F 64 °F (2013)
Min Temperature 55 °F 52 °F 51 °F (2004)
Degree Days  
Heating Degree Days 6    
Growing Degree Days 9 (Base 50)    
Moisture  
Dew Point 60 °F    
Average Humidity 99    
Maximum Humidity 100    
Minimum Humidity 94    
Precipitation  
Precipitation 0.08 in - - ()
Sea Level Pressure  
Sea Level Pressure 29.88 in    
Wind  
Wind Speed 6 mph ()    
Max Wind Speed 10 mph    
Max Gust Speed -    
Visibility 0.6 miles    
Events Fog , Rain    
Averages and records for this station are not official NWS values.
T = Trace of Precipitation, MM = Missing Value Source: Averaged Metar Reports

Daily Weather History Graph

Daily Weather History Graph

Search for Another Location

Airport or City:

Trip Planner

Search our weather history database for the weather conditions in past years. The results will help you decide how hot, cold, wet, or windy it might be!

Date:

Astronomy

Oct. 08, 2012 Rise Set
Actual Time 7:36 AM BST 6:47 PM BST
Civil Twilight 7:04 AM BST 7:20 PM BST
Nautical Twilight 6:26 AM BST 7:57 PM BST
Astronomical Twilight 5:49 AM BST 8:35 PM BST
Moon No Moon Rise 3:04 PM BST (10/8)
Length of Visible Light 12h 16m
Length of Day
11h 11m
Waning Gibbous, 48% of the Moon is Illuminated
Oct 8
Waning Gibbous
Oct 15
New
Oct 22
First Quarter
Oct 29
Full
Nov 7
Last Quarter

Hourly Weather History & Observations

Time (BST) Temp. Dew Point Humidity Pressure Visibility Wind Dir Wind Speed Gust Speed Precip Events Conditions
12:50 AM 59 °F 59 °F 99% 29.90 in 0 mi South 9.2 mph - - Fog Fog
3:50 AM 59 °F 59 °F 100% 29.86 in 0 mi SW 6.9 mph - - Fog Fog
6:50 AM 59 °F 59 °F 100% 29.87 in 0 mi WNW 5.8 mph - - Fog Fog
6:50 AM 59.0 °F 59.0 °F 100% 29.86 in 0.2 mi WNW 5.8 mph - N/A Fog Fog
7:20 AM 59.0 °F 59.0 °F 100% 29.86 in 0.4 mi West 5.8 mph - N/A Fog Fog
7:50 AM 59.0 °F 59.0 °F 100% 29.86 in 0.1 mi WSW 5.8 mph - N/A Fog Fog
8:20 AM 59.0 °F 59.0 °F 100% 29.86 in 0.1 mi WNW 5.8 mph - N/A Fog Fog
8:50 AM 59.0 °F 59.0 °F 100% 29.86 in 0.1 mi West 6.9 mph - N/A Fog Fog
9:20 AM 59.0 °F 59.0 °F 100% 29.89 in 0.0 mi SW 8.1 mph - N/A Fog Fog
9:50 AM 60 °F 60 °F 98% 29.89 in 0 mi WSW 9.2 mph - - Rain Light Drizzle
9:50 AM 59.0 °F 59.0 °F 100% 29.89 in 0.0 mi WSW 9.2 mph - N/A Fog Fog
10:20 AM 62.6 °F 60.8 °F 94% 29.89 in 2.5 mi WSW 5.8 mph - N/A Fog Fog
10:50 AM 62.6 °F 60.8 °F 94% 29.89 in 1.9 mi SW 9.2 mph - N/A Fog Mostly Cloudy
11:20 AM 60.8 °F 60.8 °F 100% 29.89 in 0.1 mi SW 10.4 mph - N/A Fog Fog
11:50 AM 60.8 °F 60.8 °F 100% 29.89 in 0.1 mi SW 6.9 mph - N/A Fog Fog
12:20 PM 60.8 °F 60.8 °F 100% 29.89 in 0.1 mi SW 9.2 mph - N/A Fog Fog
12:50 PM 61 °F 61 °F 98% 29.90 in 0 mi WSW 8.1 mph - - Fog Fog
12:50 PM 60.8 °F 60.8 °F 100% 29.89 in 0.0 mi WSW 8.1 mph - N/A Fog Fog
1:20 PM 60.8 °F 60.8 °F 100% 29.89 in 0.2 mi WSW 6.9 mph - N/A Fog Fog
1:50 PM 62.6 °F 62.6 °F 100% 29.89 in 0.2 mi West 8.1 mph - N/A Fog Fog
2:20 PM 60.8 °F 60.8 °F 100% 29.89 in 0.1 mi West 5.8 mph - N/A Fog Fog
2:50 PM 62.6 °F 62.6 °F 100% 29.86 in 0.2 mi WSW 5.8 mph - N/A Fog Fog
3:20 PM 60.8 °F 60.8 °F 100% 29.89 in 0.1 mi West 5.8 mph - N/A Fog Fog
3:50 PM 60 °F 59 °F 96% 29.88 in 0 mi SSW 4.6 mph - - Rain Rain Showers
3:50 PM 59.0 °F 59.0 °F 100% 29.86 in 0.1 mi SSW 5.8 mph - N/A Fog , Rain Rain
6:50 PM 60 °F 60 °F 100% 29.89 in 5 mi SW 1.2 mph - - Rain Rain
9:50 PM 60 °F 60 °F 100% 29.91 in 4 mi WNW 1.2 mph - - Rain Rain Showers